Location: Czekanka
(50.4925°N, 19.2643°E)
Time: 12:13:31
(UTC+00:00)

Meteor 1-11 - Pass Details

Date: 15 June 2024
Orbit: 841 x 884 km, 81.2° (Epoch: 16 July)

Event Time Altitude Azimuth Distance (km) Brightness Sun altitude
Exits shadow 00:15:34 18° 187° (S) 2,034 5.6 -13.4°
Maximum altitude 00:20:01 85° 102° (ESE) 896 4.3 -13.2°
Drops below altitude 10° 00:25:52 10° 13° (NNE) 2,556 8.1 -12.8°
Sets 00:28:19 0° 13° (NNE) 3,497 9.2 -12.6°
